Time,TemperatureF,DewpointF,PressureIn,WindDirection,WindDirectionDegrees,WindSpeedMPH,WindSpeedGustMPH,Humidity,HourlyPrecipIn,Conditions,Clouds,dailyrainin,SolarRadiationWatts/m^2,SoftwareType,DateUTC
2013-07-25 00:02:00,73.5,72.9,29.84,ESE,113,0.0,0.0,98,0.00,,,0.00,0,Wunderground v.1.15,2013-07-25 04:02:00,
2013-07-25 00:04:00,73.5,72.9,29.84,ESE,113,0.0,0.0,98,0.00,,,0.00,0,Wunderground v.1.15,2013-07-25 04:04:00,
2013-07-25 00:06:00,73.5,72.9,29.84,ESE,113,0.0,2.0,98,0.00,,,0.00,0,Wunderground v.1.15,2013-07-25 04:06:00,
2013-07-25 00:08:00,73.5,72.9,29.84,ESE,113,0.0,2.0,98,0.00,,,0.00,0,Wunderground v.1.15,2013-07-25 04:08:00,
2013-07-25 00:14:00,73.5,72.9,29.84,ESE,113,0.0,0.0,98,0.00,,,0.00,0,Wunderground v.1.15,2013-07-25 04:14:00,
2013-07-25 00:20:00,73.5,72.6,29.85,ESE,113,0.0,0.0,97,0.00,,,0.00,0,Wunderground v.1.15,2013-07-25 04:20:00,
2013-07-25 00:26:00,73.5,72.6,29.85,ESE,113,0.0,2.0,97,0.00,,,0.00,0,Wunderground v.1.15,2013-07-25 04:26:00,
2013-07-25 00:32:00,73.5,72.6,29.85,ESE,113,1.0,2.0,97,0.00,,,0.00,0,Wunderground v.1.15,2013-07-25 04:32:00,
2013-07-25 00:38:00,73.7,72.8,29.85,SSW,213,2.0,5.0,97,0.00,,,0.00,0,Wunderground v.1.15,2013-07-25 04:38:00,
2013-07-25 00:44:00,73.3,72.4,29.85,SSE,164,3.0,6.0,97,0.00,,,0.00,0,Wunderground v.1.15,2013-07-25 04:44:00,
2013-07-25 00:50:00,72.8,71.9,29.85,South,169,2.0,6.0,97,0.00,,,0.00,0,Wunderground v.1.15,2013-07-25 04:50:00,
2013-07-25 00:56:00,72.8,71.9,29.85,South,169,1.0,2.0,97,0.00,,,0.00,0,Wunderground v.1.15,2013-07-25 04:56:00,
2013-07-25 01:02:00,72.7,71.8,29.84,South,169,1.0,1.0,97,0.00,,,0.00,0,Wunderground v.1.15,2013-07-25 05:02:00,
2013-07-25 01:08:00,72.7,71.8,29.84,SSW,199,1.0,1.0,97,0.00,,,0.01,0,Wunderground v.1.15,2013-07-25 05:08:00,
2013-07-25 01:14:00,72.7,71.8,29.84,SSW,199,1.0,3.0,97,0.00,,,0.01,0,Wunderground v.1.15,2013-07-25 05:14:00,
2013-07-25 01:20:00,72.7,71.8,29.84,SSW,199,1.0,1.0,97,0.00,,,0.01,0,Wunderground v.1.15,2013-07-25 05:20:00,
2013-07-25 01:26:00,72.5,71.6,29.84,SW,227,2.0,3.0,97,0.00,,,0.01,0,Wunderground v.1.15,2013-07-25 05:26:00,
2013-07-25 01:32:00,72.5,71.6,29.83,SW,227,2.0,2.0,97,0.00,,,0.01,0,Wunderground v.1.15,2013-07-25 05:32:00,
2013-07-25 01:38:00,72.3,71.4,29.83,SW,230,2.0,3.0,97,0.00,,,0.01,0,Wunderground v.1.15,2013-07-25 05:38:00,
2013-07-25 01:44:00,72.3,71.4,29.83,SSW,208,2.0,6.0,97,0.00,,,0.01,0,Wunderground v.1.15,2013-07-25 05:44:00,
2013-07-25 01:50:00,72.1,71.2,29.83,SSW,208,1.0,2.0,97,0.00,,,0.01,0,Wunderground v.1.15,2013-07-25 05:50:00,
2013-07-25 01:56:00,72.1,71.2,29.83,SSW,208,1.0,2.0,97,0.00,,,0.01,0,Wunderground v.1.15,2013-07-25 05:56:00,
2013-07-25 02:02:00,72.0,71.1,29.83,SSW,208,0.0,2.0,97,0.00,,,0.01,0,Wunderground v.1.15,2013-07-25 06:02:00,
2013-07-25 02:08:00,71.8,70.9,29.83,SSW,208,1.0,2.0,97,0.00,,,0.01,0,Wunderground v.1.15,2013-07-25 06:08:00,
2013-07-25 02:14:00,71.6,70.7,29.83,SSW,208,1.0,1.0,97,0.00,,,0.01,0,Wunderground v.1.15,2013-07-25 06:14:00,
2013-07-25 02:20:00,71.5,70.6,29.83,SSW,208,1.0,2.0,97,0.00,,,0.01,0,Wunderground v.1.15,2013-07-25 06:20:00,
2013-07-25 02:26:00,71.5,70.6,29.83,SSW,208,1.0,2.0,97,0.00,,,0.01,0,Wunderground v.1.15,2013-07-25 06:26:00,
2013-07-25 02:32:00,71.5,70.6,29.82,SSW,208,1.0,4.0,97,0.00,,,0.01,0,Wunderground v.1.15,2013-07-25 06:32:00,
2013-07-25 02:38:00,71.5,70.6,29.82,SSW,208,1.0,4.0,97,0.00,,,0.01,0,Wunderground v.1.15,2013-07-25 06:38:00,
2013-07-25 02:44:00,71.5,70.6,29.82,North,354,2.0,3.0,97,0.00,,,0.01,0,Wunderground v.1.15,2013-07-25 06:44:00,
2013-07-25 02:50:00,71.3,70.4,29.83,NW,312,2.0,2.0,97,0.00,,,0.01,0,Wunderground v.1.15,2013-07-25 06:50:00,
2013-07-25 02:56:00,71.5,70.6,29.83,NNE,18,2.0,3.0,97,0.00,,,0.01,0,Wunderground v.1.15,2013-07-25 06:56:00,
2013-07-25 03:02:00,71.5,70.6,29.82,NNE,18,2.0,2.0,97,0.00,,,0.01,0,Wunderground v.1.15,2013-07-25 07:02:00,
2013-07-25 03:08:00,71.6,70.7,29.82,North,357,2.0,2.0,97,0.00,,,0.01,0,Wunderground v.1.15,2013-07-25 07:08:00,
2013-07-25 03:14:00,71.6,70.7,29.82,North,354,2.0,2.0,97,0.00,,,0.01,0,Wunderground v.1.15,2013-07-25 07:14:00,
2013-07-25 03:20:00,71.8,70.9,29.82,North,7,2.0,2.0,97,0.00,,,0.01,0,Wunderground v.1.15,2013-07-25 07:20:00,
2013-07-25 03:28:00,72.0,71.1,29.82,NNE,28,2.0,6.0,97,0.00,,,0.01,0,Wunderground v.1.15,2013-07-25 07:28:00,
2013-07-25 03:34:00,72.1,71.2,29.81,NNE,32,3.0,5.0,97,0.00,,,0.01,0,Wunderground v.1.15,2013-07-25 07:34:00,
2013-07-25 03:40:00,72.1,71.2,29.81,NNE,32,2.0,2.0,97,0.00,,,0.01,0,Wunderground v.1.15,2013-07-25 07:40:00,
2013-07-25 03:46:00,72.1,71.2,29.81,NNE,32,1.0,2.0,97,0.00,,,0.01,0,Wunderground v.1.15,2013-07-25 07:46:00,
2013-07-25 03:52:00,72.3,71.4,29.81,NE,42,3.0,5.0,97,0.00,,,0.01,0,Wunderground v.1.15,2013-07-25 07:52:00,
2013-07-25 03:58:00,72.3,71.4,29.81,NNE,21,4.0,5.0,97,0.00,,,0.01,0,Wunderground v.1.15,2013-07-25 07:58:00,
2013-07-25 04:04:00,72.3,71.4,29.80,East,85,4.0,5.0,97,0.00,,,0.01,0,Wunderground v.1.15,2013-07-25 08:04:00,
2013-07-25 04:11:00,72.3,71.4,29.80,NNE,31,4.0,5.0,97,0.00,,,0.01,0,Wunderground v.1.15,2013-07-25 08:11:00,
2013-07-25 04:16:00,72.3,71.4,29.81,NNE,23,3.0,7.0,97,0.00,,,0.01,0,Wunderground v.1.15,2013-07-25 08:16:00,
2013-07-25 04:22:00,72.1,71.2,29.81,NNE,23,3.0,3.0,97,0.00,,,0.01,0,Wunderground v.1.15,2013-07-25 08:22:00,
2013-07-25 04:28:00,72.1,71.2,29.81,North,359,3.0,5.0,97,0.00,,,0.01,0,Wunderground v.1.15,2013-07-25 08:28:00,
2013-07-25 04:34:00,72.0,70.8,29.81,North,0,3.0,6.0,96,0.00,,,0.01,0,Wunderground v.1.15,2013-07-25 08:34:00,
2013-07-25 04:40:00,71.8,70.6,29.81,North,7,4.0,5.0,96,0.00,,,0.01,0,Wunderground v.1.15,2013-07-25 08:40:00,
2013-07-25 04:46:00,71.8,70.6,29.81,NNE,13,5.0,7.0,96,0.00,,,0.01,0,Wunderground v.1.15,2013-07-25 08:46:00,
2013-07-25 04:52:00,71.8,70.3,29.81,NNE,18,5.0,5.0,95,0.00,,,0.01,0,Wunderground v.1.15,2013-07-25 08:52:00,
2013-07-25 04:58:00,71.8,70.3,29.81,NW,311,5.0,8.0,95,0.00,,,0.01,0,Wunderground v.1.15,2013-07-25 08:58:00,
2013-07-25 05:04:00,71.6,70.1,29.82,NNE,13,6.0,6.0,95,0.00,,,0.01,0,Wunderground v.1.15,2013-07-25 09:04:00,
2013-07-25 05:10:00,71.6,70.1,29.82,NE,37,6.0,7.0,95,0.00,,,0.01,0,Wunderground v.1.15,2013-07-25 09:10:00,
2013-07-25 05:16:00,71.5,69.7,29.82,NNE,14,6.0,11.0,94,0.00,,,0.01,0,Wunderground v.1.15,2013-07-25 09:16:00,
2013-07-25 05:22:00,71.3,69.5,29.82,NW,312,6.0,7.0,94,0.00,,,0.01,0,Wunderground v.1.15,2013-07-25 09:22:00,
2013-07-25 05:28:00,71.1,69.3,29.82,NNE,24,6.0,7.0,94,0.00,,,0.01,0,Wunderground v.1.15,2013-07-25 09:28:00,
2013-07-25 05:34:00,71.1,69.3,29.83,North,10,6.0,6.0,94,0.00,,,0.01,0,Wunderground v.1.15,2013-07-25 09:34:00,
2013-07-25 05:40:00,70.9,69.1,29.83,NE,38,5.0,6.0,94,0.00,,,0.01,0,Wunderground v.1.15,2013-07-25 09:40:00,
2013-07-25 05:46:00,70.9,69.4,29.84,NNE,31,5.0,10.0,95,0.00,,,0.01,0,Wunderground v.1.15,2013-07-25 09:46:00,
2013-07-25 05:52:00,70.9,69.4,29.84,NNE,20,5.0,5.0,95,0.00,,,0.01,0,Wunderground v.1.15,2013-07-25 09:52:00,
2013-07-25 05:58:00,70.9,69.4,29.84,ENE,66,5.0,5.0,95,0.00,,,0.01,0,Wunderground v.1.15,2013-07-25 09:58:00,
2013-07-25 06:04:00,70.9,69.4,29.84,NE,37,5.0,7.0,95,0.00,,,0.01,0,Wunderground v.1.15,2013-07-25 10:04:00,
2013-07-25 06:10:00,70.9,69.4,29.84,North,11,5.0,5.0,95,0.00,,,0.01,0,Wunderground v.1.15,2013-07-25 10:10:00,
2013-07-25 06:16:00,70.9,69.7,29.85,NNE,30,5.0,5.0,96,0.00,,,0.01,0,Wunderground v.1.15,2013-07-25 10:16:00,
2013-07-25 06:22:00,70.9,69.7,29.85,NE,49,5.0,5.0,96,0.00,,,0.01,0,Wunderground v.1.15,2013-07-25 10:22:00,
2013-07-25 06:28:00,70.8,69.6,29.85,NW,309,4.0,5.0,96,0.00,,,0.01,5,Wunderground v.1.15,2013-07-25 10:28:00,
2013-07-25 06:34:00,70.8,69.6,29.85,NNE,20,4.0,8.0,96,0.00,,,0.01,7,Wunderground v.1.15,2013-07-25 10:34:00,
2013-07-25 06:40:00,70.8,69.6,29.85,NNE,20,2.0,2.0,96,0.00,,,0.01,9,Wunderground v.1.15,2013-07-25 10:40:00,
2013-07-25 06:46:00,70.8,69.6,29.85,ENE,66,3.0,5.0,96,0.00,,,0.01,9,Wunderground v.1.15,2013-07-25 10:46:00,
2013-07-25 06:52:00,70.8,69.6,29.85,NE,34,4.0,5.0,96,0.00,,,0.01,11,Wunderground v.1.15,2013-07-25 10:52:00,
2013-07-25 06:58:00,70.8,69.6,29.85,NE,37,5.0,5.0,96,0.00,,,0.01,21,Wunderground v.1.15,2013-07-25 10:58:00,
2013-07-25 07:04:00,70.8,69.6,29.85,ENE,62,5.0,7.0,96,0.00,,,0.01,28,Wunderground v.1.15,2013-07-25 11:04:00,
2013-07-25 07:10:00,70.8,69.6,29.85,NW,311,5.0,7.0,96,0.00,,,0.02,35,Wunderground v.1.15,2013-07-25 11:10:00,
2013-07-25 07:16:00,70.8,69.6,29.86,NNE,32,5.0,7.0,96,0.00,,,0.02,40,Wunderground v.1.15,2013-07-25 11:16:00,
2013-07-25 07:22:00,70.8,69.3,29.86,NE,47,5.0,7.0,95,0.00,,,0.02,44,Wunderground v.1.15,2013-07-25 11:22:00,
2013-07-25 07:28:00,70.9,69.4,29.86,NE,42,4.0,7.0,95,0.00,,,0.02,51,Wunderground v.1.15,2013-07-25 11:28:00,
2013-07-25 07:34:00,70.8,69.0,29.86,ENE,73,5.0,7.0,94,0.00,,,0.02,49,Wunderground v.1.15,2013-07-25 11:34:00,
2013-07-25 07:40:00,70.9,69.1,29.86,NE,44,6.0,6.0,94,0.00,,,0.02,60,Wunderground v.1.15,2013-07-25 11:40:00,
2013-07-25 07:46:00,70.9,68.8,29.87,NE,40,5.0,10.0,93,0.00,,,0.02,74,Wunderground v.1.15,2013-07-25 11:46:00,
2013-07-25 07:52:00,70.9,68.8,29.87,NE,38,5.0,7.0,93,0.00,,,0.02,102,Wunderground v.1.15,2013-07-25 11:52:00,
2013-07-25 07:58:00,71.1,69.0,29.87,NNE,28,5.0,7.0,93,0.00,,,0.02,99,Wunderground v.1.15,2013-07-25 11:58:00,
2013-07-25 08:04:00,71.1,68.7,29.87,NNE,24,5.0,5.0,92,0.00,,,0.02,86,Wunderground v.1.15,2013-07-25 12:04:00,
2013-07-25 08:10:00,71.3,68.9,29.87,NE,34,5.0,5.0,92,0.00,,,0.02,56,Wunderground v.1.15,2013-07-25 12:10:00,
2013-07-25 08:16:00,71.3,68.9,29.88,NE,45,5.0,7.0,92,0.00,,,0.02,51,Wunderground v.1.15,2013-07-25 12:16:00,
2013-07-25 08:22:00,71.3,68.9,29.88,NNE,31,5.0,5.0,92,0.00,,,0.02,60,Wunderground v.1.15,2013-07-25 12:22:00,
2013-07-25 08:28:00,71.3,68.5,29.88,North,11,5.0,6.0,91,0.00,,,0.02,81,Wunderground v.1.15,2013-07-25 12:28:00,
2013-07-25 08:34:00,71.5,68.7,29.88,ENE,66,5.0,7.0,91,0.00,,,0.02,97,Wunderground v.1.15,2013-07-25 12:34:00,
2013-07-25 08:41:00,71.5,68.7,29.88,NW,312,5.0,7.0,91,0.00,,,0.02,63,Wunderground v.1.15,2013-07-25 12:41:00,
2013-07-25 08:46:00,71.5,68.7,29.89,North,3,4.0,7.0,91,0.00,,,0.02,121,Wunderground v.1.15,2013-07-25 12:46:00,
2013-07-25 08:52:00,71.6,68.8,29.89,NE,35,5.0,7.0,91,0.00,,,0.02,139,Wunderground v.1.15,2013-07-25 12:52:00,
2013-07-25 08:58:00,71.6,68.5,29.89,NNE,20,6.0,10.0,90,0.00,,,0.02,148,Wunderground v.1.15,2013-07-25 12:58:00,
2013-07-25 09:04:00,71.8,68.4,29.89,NE,49,7.0,12.0,89,0.00,,,0.02,188,Wunderground v.1.15,2013-07-25 13:04:00,
2013-07-25 09:10:00,72.3,68.9,29.89,North,1,6.0,6.0,89,0.00,,,0.02,218,Wunderground v.1.15,2013-07-25 13:10:00,
2013-07-25 09:16:00,72.7,69.3,29.90,North,0,5.0,7.0,89,0.00,,,0.02,157,Wunderground v.1.15,2013-07-25 13:16:00,
2013-07-25 09:22:00,72.5,68.7,29.90,North,359,6.0,11.0,88,0.00,,,0.02,155,Wunderground v.1.15,2013-07-25 13:22:00,
2013-07-25 09:28:00,72.5,68.7,29.90,NE,49,6.0,11.0,88,0.00,,,0.02,185,Wunderground v.1.15,2013-07-25 13:28:00,
2013-07-25 09:34:00,72.8,69.0,29.90,NE,35,7.0,9.0,88,0.00,,,0.02,246,Wunderground v.1.15,2013-07-25 13:34:00,
2013-07-25 09:40:00,73.2,69.1,29.90,North,8,6.0,6.0,87,0.00,,,0.02,194,Wunderground v.1.15,2013-07-25 13:40:00,
2013-07-25 09:46:00,73.2,68.8,29.90,North,8,7.0,8.0,86,0.00,,,0.02,230,Wunderground v.1.15,2013-07-25 13:46:00,
2013-07-25 09:52:00,73.3,68.9,29.90,NE,38,7.0,7.0,86,0.00,,,0.02,187,Wunderground v.1.15,2013-07-25 13:52:00,
2013-07-25 09:58:00,73.3,68.9,29.90,North,0,6.0,7.0,86,0.00,,,0.02,164,Wunderground v.1.15,2013-07-25 13:58:00,
2013-07-25 10:04:00,73.3,68.9,29.90,NE,38,5.0,6.0,86,0.00,,,0.02,167,Wunderground v.1.15,2013-07-25 14:04:00,
2013-07-25 10:10:00,73.5,69.1,29.90,North,0,4.0,7.0,86,0.00,,,0.02,146,Wunderground v.1.15,2013-07-25 14:10:00,
2013-07-25 10:18:00,73.3,68.9,29.90,North,1,5.0,7.0,86,0.00,,,0.02,127,Wunderground v.1.15,2013-07-25 14:18:00,
2013-07-25 10:24:00,73.3,68.9,29.90,North,4,5.0,9.0,86,0.00,,,0.02,107,Wunderground v.1.15,2013-07-25 14:24:00,
2013-07-25 10:30:00,73.2,68.8,29.91,North,0,6.0,6.0,86,0.00,,,0.02,107,Wunderground v.1.15,2013-07-25 14:30:00,
2013-07-25 10:36:00,73.0,68.2,29.91,North,11,5.0,11.0,85,0.00,,,0.02,123,Wunderground v.1.15,2013-07-25 14:36:00,
2013-07-25 10:42:00,73.0,68.6,29.91,NE,56,6.0,6.0,86,0.00,,,0.02,125,Wunderground v.1.15,2013-07-25 14:42:00,
2013-07-25 10:48:00,73.0,68.2,29.92,North,359,7.0,10.0,85,0.00,,,0.02,139,Wunderground v.1.15,2013-07-25 14:48:00,
2013-07-25 10:54:00,73.2,68.8,29.92,NNE,32,6.0,7.0,86,0.00,,,0.02,127,Wunderground v.1.15,2013-07-25 14:54:00,
2013-07-25 11:00:00,73.0,68.2,29.92,North,7,6.0,6.0,85,0.00,,,0.02,130,Wunderground v.1.15,2013-07-25 15:00:00,
2013-07-25 11:06:00,73.0,68.2,29.92,North,1,6.0,7.0,85,0.00,,,0.02,143,Wunderground v.1.15,2013-07-25 15:06:00,
2013-07-25 11:12:00,73.2,68.4,29.92,NE,41,6.0,6.0,85,0.00,,,0.02,158,Wunderground v.1.15,2013-07-25 15:12:00,
2013-07-25 11:18:00,73.2,68.4,29.93,NE,47,6.0,10.0,85,0.00,,,0.02,246,Wunderground v.1.15,2013-07-25 15:18:00,
2013-07-25 11:24:00,73.5,68.4,29.93,North,359,8.0,11.0,84,0.00,,,0.02,264,Wunderground v.1.15,2013-07-25 15:24:00,
2013-07-25 11:30:00,73.9,68.8,29.93,North,1,6.0,7.0,84,0.00,,,0.02,255,Wunderground v.1.15,2013-07-25 15:30:00,
2013-07-25 11:38:00,73.7,68.6,29.93,NNE,17,7.0,10.0,84,0.00,,,0.02,266,Wunderground v.1.15,2013-07-25 15:38:00,
2013-07-25 11:44:00,74.0,68.5,29.93,NE,45,7.0,7.0,83,0.00,,,0.02,396,Wunderground v.1.15,2013-07-25 15:44:00,
2013-07-25 11:51:00,74.9,69.0,29.93,North,8,7.0,7.0,82,0.00,,,0.02,530,Wunderground v.1.15,2013-07-25 15:51:00,
2013-07-25 11:56:00,75.3,69.1,29.93,ENE,64,6.0,7.0,81,0.00,,,0.02,435,Wunderground v.1.15,2013-07-25 15:56:00,
2013-07-25 12:02:00,75.8,69.6,29.93,NE,55,6.0,6.0,81,0.00,,,0.02,435,Wunderground v.1.15,2013-07-25 16:02:00,
2013-07-25 12:08:00,75.6,69.0,29.93,NE,40,8.0,10.0,80,0.00,,,0.02,422,Wunderground v.1.15,2013-07-25 16:08:00,
2013-07-25 12:14:00,76.0,69.7,29.93,NNE,31,7.0,8.0,81,0.00,,,0.02,336,Wunderground v.1.15,2013-07-25 16:14:00,
2013-07-25 12:20:00,76.0,69.7,29.93,NNE,27,5.0,6.0,81,0.00,,,0.02,241,Wunderground v.1.15,2013-07-25 16:20:00,
2013-07-25 12:26:00,75.4,68.8,29.93,North,0,6.0,7.0,80,0.00,,,0.02,245,Wunderground v.1.15,2013-07-25 16:26:00,
2013-07-25 12:32:00,75.6,69.7,29.94,NNE,27,7.0,7.0,82,0.00,,,0.02,310,Wunderground v.1.15,2013-07-25 16:32:00,
2013-07-25 12:38:00,75.6,68.6,29.94,NNE,13,6.0,7.0,79,0.00,,,0.02,262,Wunderground v.1.15,2013-07-25 16:38:00,
2013-07-25 12:44:00,75.4,69.2,29.94,NNE,21,6.0,8.0,81,0.00,,,0.02,306,Wunderground v.1.15,2013-07-25 16:44:00,
2013-07-25 12:50:00,76.0,69.7,29.93,East,82,7.0,7.0,81,0.00,,,0.02,399,Wunderground v.1.15,2013-07-25 16:50:00,
2013-07-25 12:56:00,76.3,69.3,29.93,North,0,7.0,10.0,79,0.00,,,0.02,338,Wunderground v.1.15,2013-07-25 16:56:00,
2013-07-25 13:02:00,76.0,69.0,29.93,NE,55,6.0,7.0,79,0.00,,,0.02,371,Wunderground v.1.15,2013-07-25 17:02:00,
2013-07-25 13:08:00,76.7,69.7,29.93,ENE,75,6.0,7.0,79,0.00,,,0.02,484,Wunderground v.1.15,2013-07-25 17:08:00,
2013-07-25 13:14:00,77.0,69.2,29.93,NE,44,7.0,10.0,77,0.00,,,0.02,449,Wunderground v.1.15,2013-07-25 17:14:00,
2013-07-25 13:20:00,77.0,69.2,29.93,ENE,62,7.0,10.0,77,0.00,,,0.02,371,Wunderground v.1.15,2013-07-25 17:20:00,
2013-07-25 13:26:00,76.8,69.4,29.93,NNE,31,6.0,10.0,78,0.00,,,0.02,445,Wunderground v.1.15,2013-07-25 17:26:00,
2013-07-25 13:32:00,76.7,68.9,29.93,NNE,17,7.0,10.0,77,0.00,,,0.02,308,Wunderground v.1.15,2013-07-25 17:32:00,
2013-07-25 13:38:00,76.5,68.7,29.93,NNE,16,7.0,10.0,77,0.00,,,0.02,311,Wunderground v.1.15,2013-07-25 17:38:00,
2013-07-25 13:44:00,76.5,69.1,29.93,NE,42,6.0,10.0,78,0.00,,,0.02,333,Wunderground v.1.15,2013-07-25 17:44:00,
2013-07-25 13:50:00,76.8,69.8,29.94,NE,45,7.0,9.0,79,0.00,,,0.02,406,Wunderground v.1.15,2013-07-25 17:50:00,
2013-07-25 13:56:00,77.2,69.4,29.94,North,3,6.0,9.0,77,0.00,,,0.02,415,Wunderground v.1.15,2013-07-25 17:56:00,
2013-07-25 14:02:00,77.2,69.0,29.93,ENE,65,6.0,7.0,76,0.00,,,0.02,340,Wunderground v.1.15,2013-07-25 18:02:00,
2013-07-25 14:08:00,77.6,69.8,29.93,NNE,18,6.0,7.0,77,0.00,,,0.02,326,Wunderground v.1.15,2013-07-25 18:08:00,
2013-07-25 14:14:00,77.6,69.8,29.93,NNE,30,6.0,8.0,77,0.00,,,0.02,343,Wunderground v.1.15,2013-07-25 18:14:00,
2013-07-25 14:20:00,77.4,69.2,29.93,NE,45,5.0,6.0,76,0.00,,,0.02,297,Wunderground v.1.15,2013-07-25 18:20:00,
2013-07-25 14:26:00,77.4,69.2,29.93,North,359,6.0,7.0,76,0.00,,,0.02,341,Wunderground v.1.15,2013-07-25 18:26:00,
2013-07-25 14:32:00,77.7,69.9,29.93,NNE,20,5.0,6.0,77,0.00,,,0.02,361,Wunderground v.1.15,2013-07-25 18:32:00,
2013-07-25 14:38:00,78.1,69.9,29.93,NE,56,6.0,7.0,76,0.00,,,0.02,398,Wunderground v.1.15,2013-07-25 18:38:00,
2013-07-25 14:44:00,78.6,70.0,29.93,NNE,13,5.0,10.0,75,0.00,,,0.02,378,Wunderground v.1.15,2013-07-25 18:44:00,
2013-07-25 14:50:00,78.3,70.1,29.93,North,359,5.0,5.0,76,0.00,,,0.02,304,Wunderground v.1.15,2013-07-25 18:50:00,
2013-07-25 14:56:00,78.3,70.1,29.93,NNE,31,4.0,5.0,76,0.00,,,0.02,380,Wunderground v.1.15,2013-07-25 18:56:00,
2013-07-25 15:02:00,78.6,70.0,29.93,NNE,13,5.0,5.0,75,0.00,,,0.02,535,Wunderground v.1.15,2013-07-25 19:02:00,
2013-07-25 15:08:00,79.0,70.4,29.93,West,271,5.0,7.0,75,0.00,,,0.02,528,Wunderground v.1.15,2013-07-25 19:08:00,
2013-07-25 15:14:00,79.4,69.6,29.93,NE,37,4.0,5.0,72,0.00,,,0.02,433,Wunderground v.1.15,2013-07-25 19:14:00,
2013-07-25 15:20:00,79.6,69.0,29.93,NNE,25,5.0,5.0,70,0.00,,,0.02,387,Wunderground v.1.15,2013-07-25 19:20:00,
2013-07-25 15:26:00,79.8,70.8,29.93,NNE,16,4.0,5.0,74,0.00,,,0.02,169,Wunderground v.1.15,2013-07-25 19:26:00,
2013-07-25 15:32:00,79.2,69.4,29.93,NE,35,4.0,6.0,72,0.00,,,0.02,95,Wunderground v.1.15,2013-07-25 19:32:00,
2013-07-25 15:38:00,78.6,69.6,29.93,NE,41,5.0,6.0,74,0.00,,,0.02,128,Wunderground v.1.15,2013-07-25 19:38:00,
2013-07-25 15:44:00,78.3,70.1,29.93,NE,49,4.0,5.0,76,0.00,,,0.02,273,Wunderground v.1.15,2013-07-25 19:44:00,
2013-07-25 15:50:00,78.6,70.8,29.93,NE,37,3.0,3.0,77,0.00,,,0.02,257,Wunderground v.1.15,2013-07-25 19:50:00,
2013-07-25 15:56:00,79.4,70.4,29.93,NE,49,3.0,6.0,74,0.00,,,0.02,841,Wunderground v.1.15,2013-07-25 19:56:00,
2013-07-25 16:02:00,80.3,68.8,29.93,NNW,347,4.0,5.0,68,0.00,,,0.02,855,Wunderground v.1.15,2013-07-25 20:02:00,
2013-07-25 16:08:00,80.3,70.4,29.93,North,1,5.0,7.0,72,0.00,,,0.02,757,Wunderground v.1.15,2013-07-25 20:08:00,
2013-07-25 16:14:00,80.9,68.9,29.93,NNE,30,5.0,5.0,67,0.00,,,0.02,477,Wunderground v.1.15,2013-07-25 20:14:00,
2013-07-25 16:21:00,81.4,69.4,29.93,ENE,64,3.0,10.0,67,0.00,,,0.02,477,Wunderground v.1.15,2013-07-25 20:21:00,
2013-07-25 16:26:00,81.4,68.9,29.93,NNE,20,4.0,10.0,66,0.00,,,0.02,169,Wunderground v.1.15,2013-07-25 20:26:00,
2013-07-25 16:32:00,80.7,69.2,29.93,NW,308,5.0,5.0,68,0.00,,,0.02,169,Wunderground v.1.15,2013-07-25 20:32:00,
2013-07-25 16:38:00,80.7,70.0,29.93,NNE,25,6.0,7.0,70,0.00,,,0.02,669,Wunderground v.1.15,2013-07-25 20:38:00,
2013-07-25 16:44:00,81.6,70.0,29.93,NE,44,6.0,7.0,68,0.00,,,0.02,605,Wunderground v.1.15,2013-07-25 20:44:00,
2013-07-25 16:50:00,81.6,70.9,29.93,NNW,335,5.0,5.0,70,0.00,,,0.02,612,Wunderground v.1.15,2013-07-25 20:50:00,
2013-07-25 16:56:00,81.6,69.1,29.93,North,4,4.0,6.0,66,0.00,,,0.02,202,Wunderground v.1.15,2013-07-25 20:56:00,
2013-07-25 17:02:00,81.2,70.9,29.94,NNW,344,4.0,5.0,71,0.00,,,0.02,260,Wunderground v.1.15,2013-07-25 21:02:00,
2013-07-25 17:08:00,80.9,69.8,29.94,North,349,4.0,5.0,69,0.00,,,0.02,187,Wunderground v.1.15,2013-07-25 21:08:00,
2013-07-25 17:14:00,80.3,69.2,29.94,North,0,5.0,10.0,69,0.00,,,0.02,225,Wunderground v.1.15,2013-07-25 21:14:00,
2013-07-25 17:20:00,79.9,70.1,29.95,NNW,343,5.0,5.0,72,0.00,,,0.02,190,Wunderground v.1.15,2013-07-25 21:20:00,
2013-07-25 17:26:00,79.6,69.4,29.95,North,352,5.0,5.0,71,0.00,,,0.02,172,Wunderground v.1.15,2013-07-25 21:26:00,
2013-07-25 17:32:00,79.8,69.6,29.95,NNW,336,6.0,6.0,71,0.00,,,0.02,501,Wunderground v.1.15,2013-07-25 21:32:00,
2013-07-25 17:38:00,80.9,69.8,29.95,NW,318,6.0,7.0,69,0.00,,,0.02,466,Wunderground v.1.15,2013-07-25 21:38:00,
2013-07-25 17:44:00,80.9,68.5,29.95,NNE,23,6.0,8.0,66,0.00,,,0.02,417,Wunderground v.1.15,2013-07-25 21:44:00,
2013-07-25 17:50:00,81.2,68.8,29.94,NW,312,6.0,6.0,66,0.00,,,0.02,401,Wunderground v.1.15,2013-07-25 21:50:00,
2013-07-25 17:56:00,81.2,68.8,29.94,NW,312,5.0,12.0,66,0.00,,,0.02,380,Wunderground v.1.15,2013-07-25 21:56:00,
2013-07-25 18:02:00,81.4,69.4,29.94,NE,38,6.0,7.0,67,0.00,,,0.02,364,Wunderground v.1.15,2013-07-25 22:02:00,
2013-07-25 18:08:00,81.4,68.9,29.94,NNE,17,6.0,7.0,66,0.00,,,0.02,352,Wunderground v.1.15,2013-07-25 22:08:00,
2013-07-25 18:14:00,81.4,69.8,29.94,NNW,340,6.0,7.0,68,0.00,,,0.02,338,Wunderground v.1.15,2013-07-25 22:14:00,
2013-07-25 18:20:00,81.2,69.6,29.94,North,3,6.0,6.0,68,0.00,,,0.02,311,Wunderground v.1.15,2013-07-25 22:20:00,
2013-07-25 18:26:00,81.6,70.0,29.94,North,1,5.0,10.0,68,0.00,,,0.02,297,Wunderground v.1.15,2013-07-25 22:26:00,
2013-07-25 18:32:00,81.6,68.7,29.94,North,354,5.0,7.0,65,0.00,,,0.02,271,Wunderground v.1.15,2013-07-25 22:32:00,
2013-07-25 18:38:00,81.2,68.3,29.94,NW,312,6.0,9.0,65,0.00,,,0.02,257,Wunderground v.1.15,2013-07-25 22:38:00,
2013-07-25 18:44:00,81.2,68.3,29.94,NNW,346,6.0,6.0,65,0.00,,,0.02,232,Wunderground v.1.15,2013-07-25 22:44:00,
2013-07-25 18:50:00,81.2,68.3,29.94,North,0,6.0,6.0,65,0.00,,,0.02,215,Wunderground v.1.15,2013-07-25 22:50:00,
2013-07-25 18:56:00,81.2,68.3,29.94,NE,47,5.0,7.0,65,0.00,,,0.02,192,Wunderground v.1.15,2013-07-25 22:56:00,
2013-07-25 19:02:00,81.4,68.5,29.95,NNE,27,5.0,6.0,65,0.00,,,0.02,176,Wunderground v.1.15,2013-07-25 23:02:00,
2013-07-25 19:08:00,81.2,68.3,29.95,North,352,6.0,10.0,65,0.00,,,0.02,160,Wunderground v.1.15,2013-07-25 23:08:00,
2013-07-25 19:14:00,81.1,68.2,29.95,NNE,31,6.0,6.0,65,0.00,,,0.02,146,Wunderground v.1.15,2013-07-25 23:14:00,
2013-07-25 19:20:00,80.7,68.7,29.95,NNE,24,5.0,7.0,67,0.00,,,0.02,97,Wunderground v.1.15,2013-07-25 23:20:00,
2013-07-25 19:26:00,80.1,68.6,29.95,NNE,30,5.0,6.0,68,0.00,,,0.02,42,Wunderground v.1.15,2013-07-25 23:26:00,
2013-07-25 19:32:00,79.4,68.8,29.96,NNE,32,5.0,5.0,70,0.00,,,0.02,37,Wunderground v.1.15,2013-07-25 23:32:00,
2013-07-25 19:38:00,78.8,68.6,29.96,ENE,71,5.0,7.0,71,0.00,,,0.02,35,Wunderground v.1.15,2013-07-25 23:38:00,
2013-07-25 19:44:00,78.5,67.9,29.96,North,359,6.0,7.0,70,0.00,,,0.02,32,Wunderground v.1.15,2013-07-25 23:44:00,
2013-07-25 19:50:00,78.1,67.9,29.97,NE,55,5.0,7.0,71,0.00,,,0.02,25,Wunderground v.1.15,2013-07-25 23:50:00,
2013-07-25 19:56:00,77.7,67.5,29.97,North,7,5.0,7.0,71,0.00,,,0.02,23,Wunderground v.1.15,2013-07-25 23:56:00,
2013-07-25 20:02:00,77.4,67.7,29.98,NW,312,4.0,4.0,72,0.00,,,0.02,18,Wunderground v.1.15,2013-07-26 00:02:00,
2013-07-25 20:08:00,77.2,67.5,29.98,North,359,4.0,5.0,72,0.00,,,0.02,16,Wunderground v.1.15,2013-07-26 00:08:00,
2013-07-25 20:14:00,76.8,67.5,29.98,North,0,3.0,5.0,73,0.00,,,0.02,11,Wunderground v.1.15,2013-07-26 00:14:00,
2013-07-25 20:20:00,76.7,67.4,29.98,NNE,14,3.0,3.0,73,0.00,,,0.02,9,Wunderground v.1.15,2013-07-26 00:20:00,
2013-07-25 20:28:00,76.3,67.4,29.98,NW,313,3.0,3.0,74,0.00,,,0.02,5,Wunderground v.1.15,2013-07-26 00:28:00,
2013-07-25 20:34:00,76.1,67.6,29.98,North,0,2.0,2.0,75,0.00,,,0.02,0,Wunderground v.1.15,2013-07-26 00:34:00,
2013-07-25 20:40:00,75.8,67.7,29.98,NNE,14,2.0,3.0,76,0.00,,,0.02,0,Wunderground v.1.15,2013-07-26 00:40:00,
2013-07-25 20:46:00,75.6,67.5,29.98,NNE,16,2.0,3.0,76,0.00,,,0.02,0,Wunderground v.1.15,2013-07-26 00:46:00,
2013-07-25 20:52:00,75.3,67.6,29.98,North,4,2.0,2.0,77,0.00,,,0.02,0,Wunderground v.1.15,2013-07-26 00:52:00,
2013-07-25 20:58:00,75.1,67.8,29.98,NNE,21,3.0,3.0,78,0.00,,,0.02,0,Wunderground v.1.15,2013-07-26 00:58:00,
2013-07-25 21:04:00,74.9,67.6,29.98,NNE,14,2.0,3.0,78,0.00,,,0.02,0,Wunderground v.1.15,2013-07-26 01:04:00,
2013-07-25 21:10:00,74.7,67.8,29.98,NNE,14,2.0,2.0,79,0.00,,,0.02,0,Wunderground v.1.15,2013-07-26 01:10:00,
2013-07-25 21:16:00,74.6,67.7,29.98,North,7,2.0,5.0,79,0.00,,,0.02,0,Wunderground v.1.15,2013-07-26 01:16:00,
2013-07-25 21:22:00,74.4,67.8,29.98,North,0,3.0,3.0,80,0.00,,,0.02,0,Wunderground v.1.15,2013-07-26 01:22:00,
2013-07-25 21:28:00,74.2,67.6,29.98,North,3,2.0,3.0,80,0.00,,,0.02,0,Wunderground v.1.15,2013-07-26 01:28:00,
2013-07-25 21:34:00,74.0,67.4,29.99,North,4,2.0,2.0,80,0.00,,,0.02,0,Wunderground v.1.15,2013-07-26 01:34:00,
2013-07-25 21:40:00,73.9,67.7,29.99,North,4,2.0,2.0,81,0.00,,,0.02,0,Wunderground v.1.15,2013-07-26 01:40:00,
2013-07-25 21:46:00,73.7,67.5,30.00,North,4,2.0,2.0,81,0.00,,,0.02,0,Wunderground v.1.15,2013-07-26 01:46:00,
2013-07-25 21:52:00,73.7,67.9,30.00,North,4,1.0,2.0,82,0.00,,,0.02,0,Wunderground v.1.15,2013-07-26 01:52:00,
2013-07-25 21:58:00,73.5,67.7,30.00,North,4,1.0,2.0,82,0.00,,,0.02,0,Wunderground v.1.15,2013-07-26 01:58:00,
2013-07-25 22:04:00,73.3,67.5,30.00,North,4,1.0,2.0,82,0.00,,,0.02,0,Wunderground v.1.15,2013-07-26 02:04:00,
2013-07-25 22:10:00,73.2,67.7,30.00,North,4,1.0,1.0,83,0.00,,,0.02,0,Wunderground v.1.15,2013-07-26 02:10:00,
2013-07-25 22:16:00,73.0,67.5,30.01,North,4,1.0,2.0,83,0.00,,,0.02,0,Wunderground v.1.15,2013-07-26 02:16:00,
2013-07-25 22:22:00,72.7,67.2,30.01,North,4,1.0,1.0,83,0.00,,,0.02,0,Wunderground v.1.15,2013-07-26 02:22:00,
2013-07-25 22:28:00,72.5,67.4,30.01,North,4,0.0,1.0,84,0.00,,,0.02,0,Wunderground v.1.15,2013-07-26 02:28:00,
2013-07-25 22:34:00,72.1,67.0,30.01,North,4,0.0,0.0,84,0.00,,,0.02,0,Wunderground v.1.15,2013-07-26 02:34:00,
2013-07-25 22:40:00,72.0,67.2,30.01,North,4,0.0,0.0,85,0.00,,,0.02,0,Wunderground v.1.15,2013-07-26 02:40:00,
2013-07-25 22:46:00,71.6,66.8,30.02,North,4,0.0,2.0,85,0.00,,,0.02,0,Wunderground v.1.15,2013-07-26 02:46:00,
2013-07-25 22:52:00,71.5,67.1,30.02,North,4,1.0,4.0,86,0.00,,,0.02,0,Wunderground v.1.15,2013-07-26 02:52:00,
2013-07-25 22:58:00,71.3,66.9,30.02,North,4,2.0,4.0,86,0.00,,,0.02,0,Wunderground v.1.15,2013-07-26 02:58:00,
2013-07-25 23:04:00,71.1,67.0,30.01,North,4,2.0,2.0,87,0.00,,,0.02,0,Wunderground v.1.15,2013-07-26 03:04:00,
2013-07-25 23:10:00,70.9,66.8,30.01,North,4,1.0,2.0,87,0.00,,,0.02,0,Wunderground v.1.15,2013-07-26 03:10:00,
2013-07-25 23:16:00,70.8,66.7,30.02,North,4,1.0,2.0,87,0.00,,,0.02,0,Wunderground v.1.15,2013-07-26 03:16:00,
2013-07-25 23:22:00,70.6,66.5,30.02,North,4,2.0,2.0,87,0.00,,,0.02,0,Wunderground v.1.15,2013-07-26 03:22:00,
2013-07-25 23:28:00,70.4,66.7,30.02,North,4,1.0,2.0,88,0.00,,,0.02,0,Wunderground v.1.15,2013-07-26 03:28:00,
2013-07-25 23:34:00,70.3,66.6,30.03,North,4,0.0,0.0,88,0.00,,,0.02,0,Wunderground v.1.15,2013-07-26 03:34:00,
2013-07-25 23:40:00,70.1,66.4,30.03,North,4,0.0,0.0,88,0.00,,,0.02,0,Wunderground v.1.15,2013-07-26 03:40:00,
2013-07-25 23:46:00,69.9,66.2,30.03,North,4,1.0,1.0,88,0.00,,,0.02,0,Wunderground v.1.15,2013-07-26 03:46:00,
2013-07-25 23:52:00,69.6,66.2,30.03,North,4,1.0,2.0,89,0.00,,,0.02,0,Wunderground v.1.15,2013-07-26 03:52:00,
2013-07-25 23:58:00,69.4,66.0,30.03,North,4,0.0,2.0,89,0.00,,,0.02,0,Wunderground v.1.15,2013-07-26 03:58:00,